Time,TemperatureF,DewpointF,PressureIn,WindDirection,WindDirectionDegrees,WindSpeedMPH,WindSpeedGustMPH,Humidity,HourlyPrecipIn,Conditions,Clouds,dailyrainin,SoftwareType,DateUTC
2013-04-06 00:04:00,30.0,24.0,-100.00,ENE,60,7.0,9.0,79,-99.99,,,-99.99,,2013-04-06 04:04:00,
2013-04-06 00:14:00,30.0,25.0,-100.00,ENE,75,6.0,7.0,80,-99.99,,,-99.99,,2013-04-06 04:14:00,
2013-04-06 00:23:00,30.0,25.0,-100.00,ENE,65,6.0,7.0,80,-99.99,,,-99.99,,2013-04-06 04:23:00,
2013-04-06 00:33:00,30.0,25.0,-100.00,ENE,65,6.0,7.0,80,-99.99,,,-99.99,,2013-04-06 04:33:00,
2013-04-06 00:42:00,30.0,24.0,-100.00,ENE,70,7.0,8.0,80,-99.99,,,-99.99,,2013-04-06 04:42:00,
2013-04-06 00:52:00,30.0,25.0,-100.00,ENE,65,7.0,7.0,80,-99.99,,,-99.99,,2013-04-06 04:52:00,
2013-04-06 01:02:00,28.0,24.0,-100.00,ENE,65,7.0,8.0,81,-99.99,,,-99.99,,2013-04-06 05:02:00,
2013-04-06 01:13:00,28.0,23.0,-100.00,ENE,75,6.0,8.0,83,-99.99,,,-99.99,,2013-04-06 05:13:00,
2013-04-06 01:22:00,28.0,24.0,-100.00,ENE,70,8.0,9.0,83,-99.99,,,-99.99,,2013-04-06 05:22:00,
2013-04-06 01:32:00,28.0,23.0,-100.00,ENE,75,6.0,9.0,83,-99.99,,,-99.99,,2013-04-06 05:32:00,
2013-04-06 01:42:00,28.0,24.0,-100.00,ENE,75,7.0,9.0,83,-99.99,,,-99.99,,2013-04-06 05:42:00,
2013-04-06 01:52:00,28.0,24.0,-100.00,East,80,6.0,7.0,83,-99.99,,,-99.99,,2013-04-06 05:52:00,
2013-04-06 02:03:00,30.0,25.0,-100.00,East,85,7.0,12.0,79,-99.99,,,-99.99,,2013-04-06 06:03:00,
2013-04-06 02:12:00,31.0,25.0,-100.00,East,85,7.0,9.0,77,-99.99,,,-99.99,,2013-04-06 06:12:00,
2013-04-06 02:22:00,31.0,24.0,-100.00,East,80,7.0,9.0,76,-99.99,,,-99.99,,2013-04-06 06:22:00,
2013-04-06 02:33:00,31.0,24.0,-100.00,East,95,7.0,9.0,74,-99.99,,,-99.99,,2013-04-06 06:33:00,
2013-04-06 02:42:00,32.0,24.0,-100.00,East,100,4.0,7.0,72,-99.99,,,-99.99,,2013-04-06 06:42:00,
2013-04-06 02:52:00,32.0,24.0,-100.00,East,90,4.0,6.0,72,-99.99,,,-99.99,,2013-04-06 06:52:00,
2013-04-06 03:03:00,32.0,24.0,-100.00,East,85,6.0,7.0,69,-99.99,,,-99.99,,2013-04-06 07:03:00,
2013-04-06 03:12:00,33.0,23.0,-100.00,ENE,70,6.0,7.0,68,-99.99,,,-99.99,,2013-04-06 07:12:00,
2013-04-06 03:22:00,32.0,24.0,-100.00,ENE,60,6.0,9.0,71,-99.99,,,-99.99,,2013-04-06 07:22:00,
2013-04-06 03:33:00,32.0,24.0,-100.00,ENE,75,4.0,6.0,71,-99.99,,,-99.99,,2013-04-06 07:33:00,
2013-04-06 03:43:00,33.0,24.0,-100.00,ENE,75,4.0,6.0,69,-99.99,,,-99.99,,2013-04-06 07:43:00,
2013-04-06 03:52:00,33.0,23.0,-100.00,ENE,70,4.0,6.0,67,-99.99,,,-99.99,,2013-04-06 07:52:00,
2013-04-06 04:02:00,33.0,23.0,-100.00,ENE,75,4.0,5.0,66,-99.99,,,-99.99,,2013-04-06 08:02:00,
2013-04-06 04:13:00,32.0,22.0,-100.00,ENE,70,4.0,5.0,66,-99.99,,,-99.99,,2013-04-06 08:13:00,
2013-04-06 04:22:00,33.0,23.0,-100.00,ENE,65,4.0,6.0,67,-99.99,,,-99.99,,2013-04-06 08:22:00,
2013-04-06 04:32:00,32.0,23.0,-100.00,ENE,70,6.0,6.0,69,-99.99,,,-99.99,,2013-04-06 08:32:00,
2013-04-06 04:42:00,33.0,23.0,-100.00,ENE,65,6.0,7.0,67,-99.99,,,-99.99,,2013-04-06 08:42:00,
2013-04-06 04:52:00,33.0,23.0,-100.00,ENE,70,6.0,7.0,66,-99.99,,,-99.99,,2013-04-06 08:52:00,
2013-04-06 05:02:00,34.0,22.0,-100.00,ENE,75,4.0,7.0,62,-99.99,,,-99.99,,2013-04-06 09:02:00,
2013-04-06 05:12:00,34.0,22.0,-100.00,East,80,6.0,7.0,60,-99.99,,,-99.99,,2013-04-06 09:12:00,
2013-04-06 05:22:00,34.0,22.0,-100.00,East,80,6.0,7.0,60,-99.99,,,-99.99,,2013-04-06 09:22:00,
2013-04-06 05:33:00,34.0,22.0,-100.00,ENE,75,4.0,8.0,59,-99.99,,,-99.99,,2013-04-06 09:33:00,
2013-04-06 05:43:00,34.0,22.0,-100.00,East,85,6.0,7.0,59,-99.99,,,-99.99,,2013-04-06 09:43:00,
2013-04-06 05:53:00,34.0,22.0,-100.00,East,100,4.0,7.0,58,-99.99,,,-99.99,,2013-04-06 09:53:00,
2013-04-06 06:03:00,35.0,22.0,-100.00,ESE,105,2.0,6.0,59,-99.99,,,-99.99,,2013-04-06 10:03:00,
2013-04-06 06:13:00,35.0,22.0,-100.00,East,95,5.0,6.0,59,-99.99,,,-99.99,,2013-04-06 10:13:00,
2013-04-06 06:23:00,35.0,22.0,-100.00,East,90,4.0,6.0,58,-99.99,,,-99.99,,2013-04-06 10:23:00,
2013-04-06 06:33:00,35.0,22.0,-100.00,East,95,2.0,6.0,59,-99.99,,,-99.99,,2013-04-06 10:33:00,
2013-04-06 06:42:00,34.0,22.0,-100.00,East,90,4.0,6.0,59,-99.99,,,-99.99,,2013-04-06 10:42:00,
2013-04-06 06:52:00,35.0,22.0,-100.00,ENE,75,4.0,6.0,59,-99.99,,,-99.99,,2013-04-06 10:52:00,
2013-04-06 07:03:00,35.0,22.0,-100.00,East,90,6.0,7.0,59,-99.99,,,-99.99,,2013-04-06 11:03:00,
2013-04-06 07:12:00,35.0,22.0,-100.00,East,100,4.0,6.0,58,-99.99,,,-99.99,,2013-04-06 11:12:00,
2013-04-06 07:23:00,35.0,22.0,-100.00,ENE,65,6.0,6.0,59,-99.99,,,-99.99,,2013-04-06 11:23:00,
2013-04-06 07:33:00,34.0,22.0,-100.00,ENE,65,7.0,7.0,61,-99.99,,,-99.99,,2013-04-06 11:33:00,
2013-04-06 07:43:00,35.0,22.0,-100.00,ENE,70,7.0,9.0,60,-99.99,,,-99.99,,2013-04-06 11:43:00,
2013-04-06 07:52:00,35.0,22.0,-100.00,ENE,75,7.0,9.0,59,-99.99,,,-99.99,,2013-04-06 11:52:00,
2013-04-06 08:02:00,35.0,22.0,-100.00,ENE,65,7.0,8.0,60,-99.99,,,-99.99,,2013-04-06 12:02:00,
2013-04-06 08:12:00,35.0,22.0,-100.00,ENE,60,8.0,9.0,59,-99.99,,,-99.99,,2013-04-06 12:12:00,
2013-04-06 08:22:00,35.0,22.0,-100.00,ENE,60,9.0,11.0,58,-99.99,,,-99.99,,2013-04-06 12:22:00,
2013-04-06 08:33:00,35.0,21.0,-100.00,ENE,70,10.0,12.0,56,-99.99,,,-99.99,,2013-04-06 12:33:00,
2013-04-06 08:43:00,36.0,21.0,-100.00,ENE,75,7.0,11.0,55,-99.99,,,-99.99,,2013-04-06 12:43:00,
2013-04-06 08:52:00,36.0,20.0,-100.00,East,80,9.0,12.0,53,-99.99,,,-99.99,,2013-04-06 12:52:00,
2013-04-06 09:03:00,36.0,20.0,-100.00,East,95,9.0,12.0,51,-99.99,,,-99.99,,2013-04-06 13:03:00,
2013-04-06 09:13:00,37.0,20.0,-100.00,East,90,7.0,12.0,50,-99.99,,,-99.99,,2013-04-06 13:13:00,
2013-04-06 09:32:00,38.0,20.0,-100.00,East,100,9.0,15.0,48,-99.99,,,-99.99,,2013-04-06 13:32:00,
2013-04-06 09:43:00,39.0,20.0,-100.00,East,90,7.0,15.0,47,-99.99,,,-99.99,,2013-04-06 13:43:00,
2013-04-06 09:52:00,40.0,21.0,-100.00,ESE,105,7.0,14.0,45,-99.99,,,-99.99,,2013-04-06 13:52:00,
2013-04-06 10:05:00,40.0,20.0,-100.00,East,90,9.0,17.0,44,-99.99,,,-99.99,,2013-04-06 14:05:00,
2013-04-06 10:12:00,41.0,21.0,-100.00,East,100,11.0,16.0,43,-99.99,,,-99.99,,2013-04-06 14:12:00,
2013-04-06 10:22:00,42.0,21.0,-100.00,East,100,9.0,17.0,42,-99.99,,,-99.99,,2013-04-06 14:22:00,
2013-04-06 10:33:00,42.0,21.0,-100.00,East,100,10.0,17.0,41,-99.99,,,-99.99,,2013-04-06 14:33:00,
2013-04-06 10:42:00,42.0,21.0,-100.00,East,100,10.0,17.0,41,-99.99,,,-99.99,,2013-04-06 14:42:00,
2013-04-06 10:52:00,43.0,21.0,-100.00,ESE,110,9.0,16.0,41,-99.99,,,-99.99,,2013-04-06 14:52:00,
2013-04-06 11:02:00,45.0,22.0,-100.00,SE,130,11.0,16.0,40,-99.99,,,-99.99,,2013-04-06 15:02:00,
2013-04-06 11:12:00,46.0,22.0,-100.00,ESE,115,14.0,20.0,39,-99.99,,,-99.99,,2013-04-06 15:12:00,
2013-04-06 11:23:00,46.0,22.0,-100.00,SE,125,14.0,19.0,39,-99.99,,,-99.99,,2013-04-06 15:23:00,
2013-04-06 11:33:00,46.0,22.0,-100.00,SE,125,15.0,19.0,38,-99.99,,,-99.99,,2013-04-06 15:33:00,
2013-04-06 11:43:00,46.0,22.0,-100.00,SE,130,13.0,21.0,38,-99.99,,,-99.99,,2013-04-06 15:43:00,
2013-04-06 11:52:00,46.0,22.0,-100.00,SE,125,12.0,21.0,37,-99.99,,,-99.99,,2013-04-06 15:52:00,
2013-04-06 12:05:00,46.0,22.0,-100.00,ESE,105,11.0,19.0,37,-99.99,,,-99.99,,2013-04-06 16:05:00,
2013-04-06 12:17:00,47.0,22.0,-100.00,SE,130,14.0,22.0,36,-99.99,,,-99.99,,2013-04-06 16:17:00,
2013-04-06 12:23:00,48.0,23.0,-100.00,SE,135,16.0,22.0,36,-99.99,,,-99.99,,2013-04-06 16:23:00,
2013-04-06 12:33:00,48.0,22.0,-100.00,SE,135,17.0,22.0,35,-99.99,,,-99.99,,2013-04-06 16:33:00,
2013-04-06 12:42:00,49.0,23.0,-100.00,ESE,120,17.0,24.0,35,-99.99,,,-99.99,,2013-04-06 16:42:00,
2013-04-06 12:53:00,49.0,23.0,-100.00,SE,125,18.0,22.0,34,-99.99,,,-99.99,,2013-04-06 16:53:00,
2013-04-06 13:03:00,50.0,23.0,-100.00,SE,130,19.0,24.0,34,-99.99,,,-99.99,,2013-04-06 17:03:00,
2013-04-06 13:12:00,50.0,23.0,-100.00,SE,130,15.0,21.0,33,-99.99,,,-99.99,,2013-04-06 17:12:00,
2013-04-06 13:22:00,51.0,23.0,-100.00,SE,135,18.0,23.0,33,-99.99,,,-99.99,,2013-04-06 17:22:00,
2013-04-06 13:33:00,51.0,23.0,-100.00,SE,130,13.0,22.0,33,-99.99,,,-99.99,,2013-04-06 17:33:00,
2013-04-06 13:42:00,50.0,22.0,-100.00,SE,125,17.0,22.0,33,-99.99,,,-99.99,,2013-04-06 17:42:00,
2013-04-06 13:52:00,51.0,23.0,-100.00,SE,125,11.0,24.0,32,-99.99,,,-99.99,,2013-04-06 17:52:00,
2013-04-06 14:03:00,51.0,23.0,-100.00,SE,145,14.0,24.0,32,-99.99,,,-99.99,,2013-04-06 18:03:00,
2013-04-06 14:12:00,52.0,23.0,-100.00,SE,130,17.0,21.0,32,-99.99,,,-99.99,,2013-04-06 18:12:00,
2013-04-06 14:23:00,52.0,23.0,-100.00,SE,140,12.0,19.0,31,-99.99,,,-99.99,,2013-04-06 18:23:00,
2013-04-06 14:32:00,53.0,24.0,-100.00,SE,140,15.0,19.0,31,-99.99,,,-99.99,,2013-04-06 18:32:00,
2013-04-06 14:42:00,53.0,24.0,-100.00,SE,145,16.0,22.0,31,-99.99,,,-99.99,,2013-04-06 18:42:00,
2013-04-06 14:52:00,53.0,24.0,-100.00,SE,145,16.0,22.0,31,-99.99,,,-99.99,,2013-04-06 18:52:00,
2013-04-06 15:03:00,54.0,24.0,-100.00,SE,130,14.0,23.0,31,-99.99,,,-99.99,,2013-04-06 19:03:00,
2013-04-06 15:12:00,54.0,24.0,-100.00,SE,145,16.0,23.0,31,-99.99,,,-99.99,,2013-04-06 19:12:00,
2013-04-06 15:23:00,54.0,24.0,-100.00,SE,140,15.0,21.0,30,-99.99,,,-99.99,,2013-04-06 19:23:00,
2013-04-06 15:33:00,54.0,24.0,-100.00,ESE,120,17.0,24.0,30,-99.99,,,-99.99,,2013-04-06 19:33:00,
2013-04-06 15:42:00,55.0,24.0,-100.00,SE,135,19.0,26.0,30,-99.99,,,-99.99,,2013-04-06 19:42:00,
2013-04-06 15:53:00,54.0,24.0,-100.00,ESE,115,16.0,25.0,30,-99.99,,,-99.99,,2013-04-06 19:53:00,
2013-04-06 16:03:00,54.0,24.0,-100.00,SE,130,17.0,27.0,30,-99.99,,,-99.99,,2013-04-06 20:03:00,
2013-04-06 16:12:00,54.0,24.0,-100.00,SE,140,19.0,25.0,30,-99.99,,,-99.99,,2013-04-06 20:12:00,
2013-04-06 16:22:00,54.0,24.0,-100.00,ESE,115,13.0,25.0,30,-99.99,,,-99.99,,2013-04-06 20:22:00,
2013-04-06 16:32:00,55.0,25.0,-100.00,SE,140,16.0,26.0,30,-99.99,,,-99.99,,2013-04-06 20:32:00,
2013-04-06 16:42:00,55.0,24.0,-100.00,SE,125,19.0,25.0,30,-99.99,,,-99.99,,2013-04-06 20:42:00,
2013-04-06 16:52:00,55.0,24.0,-100.00,SE,125,19.0,25.0,30,-99.99,,,-99.99,,2013-04-06 20:52:00,
2013-04-06 17:02:00,56.0,25.0,-100.00,SE,140,21.0,26.0,30,-99.99,,,-99.99,,2013-04-06 21:02:00,
2013-04-06 17:22:00,56.0,25.0,-100.00,SE,130,19.0,25.0,30,-99.99,,,-99.99,,2013-04-06 21:22:00,
2013-04-06 17:33:00,56.0,25.0,-100.00,SE,125,16.0,21.0,29,-99.99,,,-99.99,,2013-04-06 21:33:00,
2013-04-06 17:43:00,55.0,24.0,-100.00,ESE,110,16.0,25.0,29,-99.99,,,-99.99,,2013-04-06 21:43:00,
2013-04-06 17:52:00,55.0,24.0,-100.00,SE,135,19.0,23.0,29,-99.99,,,-99.99,,2013-04-06 21:52:00,
2013-04-06 18:03:00,56.0,25.0,-100.00,ESE,110,14.0,21.0,29,-99.99,,,-99.99,,2013-04-06 22:03:00,
2013-04-06 18:13:00,56.0,25.0,-100.00,SE,140,16.0,27.0,29,-99.99,,,-99.99,,2013-04-06 22:13:00,
2013-04-06 18:23:00,56.0,25.0,-100.00,SE,130,17.0,21.0,29,-99.99,,,-99.99,,2013-04-06 22:23:00,
2013-04-06 18:35:00,56.0,25.0,-100.00,SE,135,20.0,26.0,29,-99.99,,,-99.99,,2013-04-06 22:35:00,
2013-04-06 18:43:00,55.0,24.0,-100.00,ESE,115,17.0,24.0,29,-99.99,,,-99.99,,2013-04-06 22:43:00,
2013-04-06 18:53:00,55.0,24.0,-100.00,SE,125,16.0,24.0,29,-99.99,,,-99.99,,2013-04-06 22:53:00,
2013-04-06 19:03:00,55.0,24.0,-100.00,SE,125,17.0,26.0,29,-99.99,,,-99.99,,2013-04-06 23:03:00,
2013-04-06 19:14:00,55.0,24.0,-100.00,SE,125,16.0,25.0,29,-99.99,,,-99.99,,2013-04-06 23:14:00,
2013-04-06 19:23:00,55.0,24.0,-100.00,SE,125,17.0,27.0,29,-99.99,,,-99.99,,2013-04-06 23:23:00,
2013-04-06 19:34:00,55.0,24.0,-100.00,SE,130,16.0,24.0,29,-99.99,,,-99.99,,2013-04-06 23:34:00,
2013-04-06 19:42:00,55.0,24.0,-100.00,ESE,120,13.0,23.0,29,-99.99,,,-99.99,,2013-04-06 23:42:00,
2013-04-06 19:52:00,55.0,24.0,-100.00,ESE,120,14.0,20.0,29,-99.99,,,-99.99,,2013-04-06 23:52:00,
2013-04-06 20:02:00,55.0,24.0,-100.00,SE,130,17.0,24.0,29,-99.99,,,-99.99,,2013-04-07 00:02:00,
2013-04-06 20:13:00,55.0,24.0,-100.00,ESE,120,16.0,25.0,29,-99.99,,,-99.99,,2013-04-07 00:13:00,
2013-04-06 20:22:00,55.0,24.0,-100.00,SE,125,16.0,21.0,29,-99.99,,,-99.99,,2013-04-07 00:22:00,
2013-04-06 20:33:00,54.0,23.0,-100.00,SE,125,16.0,24.0,29,-99.99,,,-99.99,,2013-04-07 00:33:00,
2013-04-06 20:43:00,54.0,23.0,-100.00,ESE,115,14.0,20.0,29,-99.99,,,-99.99,,2013-04-07 00:43:00,
2013-04-06 20:52:00,54.0,23.0,-100.00,SE,125,14.0,21.0,30,-99.99,,,-99.99,,2013-04-07 00:52:00,
2013-04-06 21:02:00,54.0,23.0,-100.00,SE,125,14.0,21.0,30,-99.99,,,-99.99,,2013-04-07 01:02:00,
2013-04-06 21:12:00,54.0,23.0,-100.00,ESE,120,17.0,24.0,29,-99.99,,,-99.99,,2013-04-07 01:12:00,
2013-04-06 21:23:00,54.0,23.0,-100.00,ESE,120,15.0,23.0,30,-99.99,,,-99.99,,2013-04-07 01:23:00,
2013-04-06 21:33:00,54.0,24.0,-100.00,SE,125,15.0,21.0,30,-99.99,,,-99.99,,2013-04-07 01:33:00,
2013-04-06 21:43:00,54.0,24.0,-100.00,SE,125,18.0,22.0,30,-99.99,,,-99.99,,2013-04-07 01:43:00,
2013-04-06 21:52:00,54.0,24.0,-100.00,SE,130,16.0,24.0,30,-99.99,,,-99.99,,2013-04-07 01:52:00,
2013-04-06 22:03:00,54.0,24.0,-100.00,SE,125,14.0,23.0,29,-99.99,,,-99.99,,2013-04-07 02:03:00,
2013-04-06 22:12:00,54.0,24.0,-100.00,SE,125,14.0,23.0,29,-99.99,,,-99.99,,2013-04-07 02:12:00,
2013-04-06 22:23:00,54.0,23.0,-100.00,SE,130,16.0,21.0,29,-99.99,,,-99.99,,2013-04-07 02:23:00,
2013-04-06 22:33:00,54.0,23.0,-100.00,SE,125,17.0,24.0,29,-99.99,,,-99.99,,2013-04-07 02:33:00,
2013-04-06 22:43:00,54.0,23.0,-100.00,SE,125,16.0,23.0,30,-99.99,,,-99.99,,2013-04-07 02:43:00,
2013-04-06 22:52:00,54.0,24.0,-100.00,SE,125,17.0,24.0,30,-99.99,,,-99.99,,2013-04-07 02:52:00,
2013-04-06 23:02:00,54.0,24.0,-100.00,SE,125,17.0,24.0,30,-99.99,,,-99.99,,2013-04-07 03:02:00,
2013-04-06 23:12:00,54.0,24.0,-100.00,SE,130,17.0,24.0,30,-99.99,,,-99.99,,2013-04-07 03:12:00,
2013-04-06 23:22:00,54.0,24.0,-100.00,SE,125,19.0,29.0,30,-99.99,,,-99.99,,2013-04-07 03:22:00,
2013-04-06 23:35:00,54.0,24.0,-100.00,SE,130,19.0,26.0,31,-99.99,,,-99.99,,2013-04-07 03:35:00,
2013-04-06 23:44:00,54.0,24.0,-100.00,SE,130,20.0,27.0,31,-99.99,,,-99.99,,2013-04-07 03:44:00,
2013-04-06 23:53:00,54.0,24.0,-100.00,SE,130,22.0,27.0,31,-99.99,,,-99.99,,2013-04-07 03:53:00,